Location: Carrières
(48.9495°N, 2.0407°E)
Time: 09:32:44
(UTC+00:00)

Cosmos 1241 Rocket - Pass Details

Date: 03 October 2023
Orbit: 941 x 1006 km, 65.8° (Epoch: 06 December)

Event Time Altitude Azimuth Distance (km) Brightness Sun altitude
Rises 18:31:43 0° 318° (NW) 3,649 8.3 -11.4°
Reaches altitude 10° 18:34:29 10° 309° (NW) 2,690 7.8 -11.9°
Maximum altitude 18:40:02 34° 247° (WSW) 1,505 6.1 -12.8°
Drops below altitude 10° 18:45:30 10° 185° (S) 2,651 6.7 -13.6°
Sets 18:48:13 0° 176° (S) 3,589 7.3 -14.1°
